Time,TemperatureF,DewpointF,PressureIn,WindDirection,WindDirectionDegrees,WindSpeedMPH,WindSpeedGustMPH,Humidity,HourlyPrecipIn,Conditions,Clouds,dailyrainin,SoftwareType,DateUTC
2013-01-18 00:22:00,31.0,30.0,30.16,NNE,28,0.0,0.0,96,0.00,,,0.00,,2013-01-18 05:22:00,
2013-01-18 00:33:00,31.0,30.0,30.16,NNE,28,0.0,0.0,96,0.00,,,0.00,,2013-01-18 05:33:00,
2013-01-18 00:42:00,31.0,30.0,30.16,NNE,28,0.0,0.0,96,0.00,,,0.00,,2013-01-18 05:42:00,
2013-01-18 00:52:00,31.0,30.0,30.16,NNE,28,0.0,0.0,96,0.00,,,0.00,,2013-01-18 05:52:00,
2013-01-18 03:22:00,29.0,21.0,30.28,West,274,2.0,6.0,72,0.00,,,0.00,,2013-01-18 08:22:00,
2013-01-18 03:32:00,29.0,21.0,30.28,West,274,2.0,6.0,72,0.00,,,0.00,,2013-01-18 08:32:00,
2013-01-18 03:42:00,29.0,21.0,30.28,West,274,2.0,6.0,72,0.00,,,0.00,,2013-01-18 08:42:00,
2013-01-18 03:52:00,29.0,21.0,30.28,West,274,2.0,6.0,72,0.00,,,0.00,,2013-01-18 08:52:00,
2013-01-18 06:33:00,25.0,19.0,30.39,NW,323,3.0,7.0,76,0.00,,,0.00,,2013-01-18 11:33:00,
2013-01-18 06:43:00,25.0,19.0,30.39,NW,323,3.0,7.0,76,0.00,,,0.00,,2013-01-18 11:43:00,
2013-01-18 06:53:00,24.0,15.0,30.40,NW,312,8.0,13.0,67,0.00,,,0.00,,2013-01-18 11:53:00,
2013-01-18 07:03:00,24.0,15.0,30.40,NW,312,8.0,13.0,67,0.00,,,0.00,,2013-01-18 12:03:00,
2013-01-18 07:12:00,24.0,15.0,30.40,NW,312,8.0,13.0,67,0.00,,,0.00,,2013-01-18 12:12:00,
2013-01-18 07:23:00,24.0,15.0,30.40,NW,312,8.0,13.0,67,0.00,,,0.00,,2013-01-18 12:23:00,
2013-01-18 10:03:00,23.0,13.0,30.48,WSW,238,0.0,0.0,64,0.00,,,0.00,,2013-01-18 15:03:00,
2013-01-18 10:13:00,23.0,13.0,30.48,WSW,238,0.0,0.0,64,0.00,,,0.00,,2013-01-18 15:13:00,
2013-01-18 10:23:00,23.0,13.0,30.48,WSW,238,0.0,0.0,64,0.00,,,0.00,,2013-01-18 15:23:00,
2013-01-18 10:34:00,23.0,13.0,30.48,WSW,238,0.0,0.0,64,0.00,,,0.00,,2013-01-18 15:34:00,
2013-01-18 13:34:00,29.0,16.0,30.44,WSW,243,1.0,0.0,59,0.00,,,0.00,,2013-01-18 18:34:00,
2013-01-18 13:43:00,29.0,16.0,30.44,WSW,243,1.0,0.0,59,0.00,,,0.00,,2013-01-18 18:43:00,
2013-01-18 13:53:00,29.0,16.0,30.44,WSW,243,1.0,0.0,59,0.00,,,0.00,,2013-01-18 18:53:00,
2013-01-18 14:03:00,29.0,16.0,30.44,WSW,243,1.0,0.0,59,0.00,,,0.00,,2013-01-18 19:03:00,
2013-01-18 19:33:00,30.0,18.0,30.37,SW,224,3.0,0.0,60,0.00,,,0.00,,2013-01-19 00:33:00,
2013-01-18 19:43:00,30.0,18.0,30.37,SW,224,3.0,0.0,60,0.00,,,0.00,,2013-01-19 00:43:00,
2013-01-18 19:53:00,30.0,18.0,30.37,SW,224,3.0,0.0,60,0.00,,,0.00,,2013-01-19 00:53:00,
2013-01-18 20:03:00,30.0,17.0,30.37,South,181,2.0,0.0,59,0.00,,,0.00,,2013-01-19 01:03:00,
2013-01-18 20:12:00,30.0,17.0,30.37,South,181,2.0,0.0,59,0.00,,,0.00,,2013-01-19 01:12:00,
2013-01-18 20:23:00,30.0,17.0,30.37,South,181,2.0,0.0,59,0.00,,,0.00,,2013-01-19 01:23:00,
2013-01-18 20:33:00,30.0,17.0,30.37,South,181,2.0,0.0,59,0.00,,,0.00,,2013-01-19 01:33:00,
2013-01-18 23:52:00,33.0,15.0,30.28,SW,217,2.0,11.0,48,0.00,,,0.00,,2013-01-19 04:52:00,